STARLINK-34443

Last updated on Thu Jul 03 2025 00:02:06 GMT+0000 (Coordinated Universal Time)

1 64296U 25123F 25183.58335648 -.00032614 00000+0 -52941-3 0 9992 2 64296 69.9997 120.1031 0003395 269.3454 306.3530 15.52526931 5070
UTC large
Height (km)
Speed (km/s)
/
Latitude / Longitude
Inclination (degrees)
Orbital Period (minutes)
Azimuth
Elevation
Range (km)
Doppler Factor

Next 0 passes for location: London (51.5072 / 0.1276)

Sorry there are no passes over London.